FW7501 Weather Reports


time (UTC)temp
F
wind
direction
speed
knots
gust
knots
rain 1hr
in
rain 24hr
in
rain mn
in
humidity
%
barometer
mb
20260905113507 50 286 8.7 11.3 0.00 0.07 0.07 72 1011.8
20260905113018 50 297 7.0 13.0 0.00 0.07 0.07 72 1011.6
20260905112510 50 302 6.1 13.0 0.00 0.07 0.07 72 1011.5
20260905112002 50 309 7.0 10.4 0.00 0.07 0.07 73 1011.3
20260905111505 50 305 6.1 12.2 0.00 0.07 0.07 73 1011.2
20260905111005 50 312 7.0 12.2 0.00 0.07 0.07 72 1011.2
20260905110504 50 302 7.8 12.2 0.00 0.07 0.07 72 1011.1
20260905110002 50 310 7.0 10.4 0.00 0.07 0.07 72 1010.9
20260905105508 50 314 7.0 10.4 0.00 0.07 0.07 72 1010.9
20260905105004 50 333 7.0 11.3 0.00 0.07 0.07 71 1010.7
20260905104501 50 314 7.0 11.3 0.00 0.07 0.07 71 1010.7
20260905104004 50 316 7.0 11.3 0.00 0.07 0.07 71 1010.7
20260905103505 50 341 7.0 15.6 0.00 0.07 0.07 71 1010.7
20260905103015 50 324 7.0 15.6 0.00 0.07 0.07 71 1010.7
20260905102505 50 339 7.8 13.9 0.00 0.07 0.07 71 1010.6
20260905102003 50 299 9.6 13.9 0.00 0.07 0.07 71 1010.6
20260905101505 50 314 8.7 13.0 0.00 0.07 0.07 72 1010.4
20260905101003 50 306 6.1 13.0 0.00 0.07 0.07 72 1010.3
20260905100510 50 320 7.0 13.0 0.00 0.07 0.07 72 1010.1
20260905100006 50 305 8.7 12.2 0.00 0.07 0.07 72 1009.9
20260905095504 51 308 6.1 15.6 0.00 0.07 0.07 72 1009.9
20260905095006 50 296 9.6 15.6 0.00 0.07 0.07 73 1010.1
20260905094508 50 293 7.8 13.0 0.00 0.07 0.07 76 1009.8
20260905094003 49 336 6.1 12.2 0.00 0.07 0.07 77 1009.7
20260905093508 49 335 7.8 12.2 0.00 0.07 0.07 77 1009.5
20260905093005 49 318 6.1 12.2 0.00 0.07 0.07 78 1009.4
20260905092504 49 11 7.0 12.2 0.00 0.07 0.07 78 1009.3
20260905092004 50 333 7.8 13.0 0.00 0.07 0.07 78 1009.0
20260905091505 49 338 7.0 13.0 0.00 0.07 0.07 78 1009.0
20260905091006 49 339 5.2 9.6 0.00 0.07 0.07 78 1008.9
20260905090503 49 21 4.3 8.7 0.00 0.07 0.07 79 1008.8
20260905090005 49 5 3.5 8.7 0.00 0.07 0.07 79 1008.7
20260905085505 49 16 5.2 9.6 0.00 0.07 0.07 78 1008.7
20260905085002 49 4 5.2 9.6 0.00 0.07 0.07 79 1008.7
20260905084508 49 339 5.2 10.4 0.00 0.07 0.07 79 1008.4
20260905084006 49 345 7.0 14.8 0.00 0.07 0.07 78 1008.2
20260905083502 49 328 7.8 16.5 0.00 0.07 0.07 78 1007.9
20260905083011 49 343 9.6 16.5 0.00 0.07 0.07 78 1007.8
20260905082511 49 344 10.4 14.8 0.00 0.07 0.07 78 1007.8
20260905082010 49 335 9.6 13.9 0.00 0.07 0.07 78 1007.9
20260905081510 49 333 8.7 12.2 0.00 0.07 0.07 78 1007.9
20260905081007 50 352 8.7 12.2 0.00 0.07 0.07 77 1007.9
20260905080504 50 333 7.0 13.9 0.00 0.07 0.07 76 1007.8
20260905080004 50 324 7.8 13.9 0.00 0.07 0.07 76 1007.9
20260905075504 50 326 8.7 13.0 0.00 0.07 0.07 75 1007.8
20260905075005 51 332 7.8 15.6 0.00 0.07 0.07 74 1007.8
20260905074506 51 306 9.6 20.0 0.00 0.07 0.07 73 1007.8
20260905074007 50 289 11.3 20.0 0.00 0.07 0.07 73 1007.8
20260905073507 50 312 11.3 18.2 0.00 0.07 0.07 74 1007.8
20260905073008 51 319 10.4 21.7 0.00 0.07 0.07 71 1007.8
20260905072508 53 304 14.8 20.9 0.00 0.07 0.07 68 1007.7
20260905072004 53 304 12.2 16.5 0.00 0.07 0.07 72 1007.5
20260905071505 53 279 9.6 18.2 0.00 0.07 0.07 72 1007.1
20260905071010 53 308 12.2 18.2 0.00 0.07 0.07 70 1007.3
20260905070503 54 308 10.4 19.1 0.00 0.07 0.07 69 1007.0
20260905070020 55 308 12.2 21.7 0.00 0.07 0.07 67 1007.1
20260905065509 56 299 13.9 21.7 0.00 0.07 0.07 65 1006.8
20260905065006 56 310 10.4 18.2 0.00 0.07 0.07 66 1006.7
20260905064508 57 321 10.4 20.0 0.00 0.07 0.07 66 1006.6
20260905064004 57 313 12.2 22.6 0.00 0.07 0.07 64 1006.5
20260905063504 58 308 13.9 22.6 0.00 0.07 0.07 63 1006.4
20260905063007 58 311 13.0 20.9 0.00 0.07 0.07 63 1006.3
20260905062508 57 305 8.7 19.1 0.00 0.07 0.07 65 1006.3
20260905062003 57 303 13.0 21.7 0.00 0.07 0.07 64 1006.2
20260905061512 58 292 13.9 21.7 0.00 0.07 0.07 64 1006.2
20260905061003 58 306 14.8 20.9 0.00 0.07 0.07 62 1006.2
20260905060507 58 301 14.8 21.7 0.00 0.07 0.07 62 1006.3
20260905060009 58 297 12.2 21.7 0.00 0.07 0.07 63 1006.1
20260905055512 58 291 13.9 19.1 0.00 0.07 0.07 60 1006.3
20260905055010 59 307 12.2 20.9 0.00 0.07 0.07 63 1006.2
20260905054518 58 322 16.5 20.9 0.00 0.07 0.07 61 1006.1
20260905054017 59 287 10.4 24.3 0.00 0.07 0.07 62 1006.0
20260905053506 59 308 14.8 24.3 0.00 0.07 0.07 61 1006.0
20260905053005 58 317 13.9 23.5 0.00 0.07 0.07 59 1005.9
20260905052504 59 297 15.6 27.8 0.00 0.07 0.07 61 1005.9
20260905052006 58 316 14.8 27.8 0.00 0.07 0.07 60 1005.9
20260905051509 59 300 13.0 26.1 0.00 0.07 0.07 61 1005.8
20260905051007 58 308 17.4 24.3 0.00 0.07 0.07 60 1005.6
20260905050506 59 330 14.8 20.9 0.00 0.07 0.07 60 1005.7
20260905050013 59 288 12.2 24.3 0.00 0.07 0.07 62 1005.7
20260905045511 59 303 14.8 24.3 0.00 0.07 0.07 59 1005.5
20260905045012 59 314 13.0 24.3 0.00 0.07 0.07 60 1005.3
20260905044523 59 294 14.8 24.3 0.00 0.07 0.07 60 1005.5
20260905044005 59 304 17.4 26.9 0.00 0.07 0.07 59 1005.4
20260905043514 59 310 19.1 26.9 0.00 0.07 0.07 59 1005.4
20260905043014 59 330 13.0 28.7 0.00 0.07 0.07 60 1005.5
20260905042506 59 314 17.4 28.7 0.00 0.07 0.07 58 1005.4
20260905042014 59 306 16.5 27.8 0.00 0.07 0.07 59 1005.3
20260905041519 59 324 15.6 23.5 0.00 0.07 0.07 61 1005.4
20260905041018 59 322 13.0 24.3 0.00 0.07 0.07 61 1005.2
20260905040505 60 316 13.9 26.9 0.00 0.07 0.07 62 1005.2
20260905040011 60 297 17.4 26.9 0.00 0.07 0.07 61 1005.1
20260905035506 60 282 13.0 20.0 0.00 0.07 0.07 63 1005.2
20260905035010 60 298 13.0 20.0 0.00 0.07 0.07 63 1005.3
20260905034507 60 310 9.6 21.7 0.00 0.07 0.07 64 1005.3
20260905034011 59 308 13.0 24.3 0.00 0.07 0.07 63 1005.3
20260905033507 59 310 14.8 24.3 0.00 0.07 0.07 62 1005.2
20260905033034 59 295 16.5 27.8 0.00 0.07 0.07 63 1005.4
20260905032514 60 290 16.5 27.8 0.00 0.07 0.07 58 1005.5
20260905032010 60 313 14.8 27.8 0.00 0.07 0.07 60 1005.5
20260905031531 60 317 20.9 27.8 0.00 0.07 0.07 58 1005.4
20260905031014 60 312 18.2 28.7 0.00 0.07 0.07 59 1005.5
20260905030514 60 316 20.0 26.1 0.00 0.07 0.07 59 1005.3
20260905030032 60 312 16.5 24.3 0.00 0.07 0.07 60 1005.4
20260905025510 61 339 12.2 25.2 0.00 0.07 0.07 62 1005.3
20260905025018 60 310 15.6 25.2 0.00 0.07 0.07 60 1005.4
20260905024514 60 318 15.6 24.3 0.00 0.07 0.07 60 1005.3
20260905024006 60 299 13.0 22.6 0.00 0.07 0.07 62 1005.3
20260905023510 59 334 14.8 22.6 0.00 0.07 0.07 64 1005.3
20260905023018 57 297 12.2 23.5 0.00 0.07 0.07 72 1005.5
20260905022511 56 312 12.2 26.9 0.00 0.07 0.07 71 1005.5
20260905022015 56 301 10.4 26.9 0.00 0.07 0.07 68 1005.7
20260905021516 58 313 11.3 18.2 0.00 0.07 0.07 68 1005.7
20260905021014 58 329 10.4 20.9 0.00 0.07 0.07 69 1005.7
20260905020513 58 287 11.3 25.2 0.00 0.07 0.07 69 1005.7
20260905020012 59 304 14.8 25.2 0.00 0.07 0.07 68 1005.7
20260905015520 59 335 12.2 23.5 0.00 0.07 0.07 69 1005.7
20260905015012 60 304 14.8 24.3 0.00 0.07 0.07 68 1005.8
20260905014535 60 323 16.5 25.2 0.00 0.07 0.07 68 1005.7
20260905014015 60 320 15.6 26.1 0.00 0.07 0.07 70 1005.7
20260905013508 59 314 16.5 26.1 0.00 0.07 0.07 68 1005.8
20260905013016 59 311 14.8 24.3 0.00 0.07 0.07 69 1005.9
20260905012509 59 302 13.0 23.5 0.00 0.07 0.07 70 1006.0
20260905012020 59 316 13.9 23.5 0.00 0.07 0.07 70 1006.0
20260905011522 58 297 15.6 23.5 0.00 0.07 0.07 70 1006.2
20260905011013 58 311 13.0 22.6 0.00 0.07 0.07 72 1006.4
20260905010513 58 343 13.9 24.3 0.00 0.07 0.07 72 1006.0
20260905010040 57 308 13.0 24.3 0.00 0.07 0.07 75 1006.0
20260905005509 57 316 12.2 26.9 0.00 0.07 0.07 79 1005.9
20260905005019 56 323 13.9 26.9 0.00 0.07 0.07 79 1005.8
20260905004526 56 320 14.8 24.3 0.00 0.07 0.07 80 1005.8
20260905004015 56 343 15.6 25.2 0.00 0.07 0.07 82 1005.7
20260905003515 56 332 13.0 26.9 0.00 0.07 0.07 82 1005.7
20260905003024 55 321 14.8 26.9 0.00 0.07 0.07 82 1005.6
20260905002519 55 340 16.5 26.9 0.00 0.07 0.07 83 1005.5
20260905002016 55 330 14.8 26.9 0.00 0.06 0.06 83 1005.7
20260905001514 55 354 15.6 27.8 0.00 0.06 0.06 83 1005.7
20260905001012 55 357 17.4 27.8 0.00 0.06 0.06 83 1005.6
20260905000517 55 343 15.6 26.9 0.00 0.06 0.06 83 1005.6
20260905000032 55 335 14.8 24.3 0.00 0.06 0.06 83 1005.9
20260904235513 55 349 17.4 29.5 0.00 0.06 0.06 83 1005.6
20260904235013 54 6 19.1 29.5 0.00 0.06 0.06 83 1005.6
20260904234531 54 351 17.4 27.8 0.00 0.06 0.06 83 1005.7
20260904234017 54 10 20.0 27.8 0.00 0.06 0.06 83 1005.8
20260904233515 54 346 16.5 27.8 0.00 0.06 0.06 83 1005.9
20260904233034 54 11 13.9 23.5 0.00 0.06 0.06 84 1005.8
20260904232516 54 314 14.8 28.7 0.00 0.06 0.06 84 1006.0
20260904232006 54 340 13.0 28.7 0.00 0.06 0.06 84 1005.8
20260904231509 54 26 9.6 20.9 0.00 0.06 0.06 84 1005.7
20260904231003 54 333 13.0 22.6 0.00 0.06 0.06 84 1005.9
20260904230507 54 343 13.0 22.6 0.00 0.06 0.06 84 1006.1
20260904230006 54 4 8.7 19.1 0.00 0.06 0.06 84 1006.0
20260904225502 54 7 12.2 22.6 0.00 0.06 0.06 84 1006.1
20260904225003 54 360 13.9 22.6 0.00 0.06 0.06 84 1006.3
20260904224505 54 28 8.7 25.2 0.00 0.05 0.05 84 1006.7
20260904224005 54 357 12.2 26.1 0.00 0.05 0.05 84 1006.8
20260904223503 54 346 13.0 26.1 0.00 0.05 0.05 84 1006.5
20260904223004 54 351 12.2 24.3 0.00 0.05 0.05 85 1006.7
20260904222504 53 338 12.2 24.3 0.00 0.05 0.05 85 1006.9
20260904222004 53 350 12.2 22.6 0.00 0.05 0.05 85 1006.5
20260904221519 53 28 12.2 20.9 0.00 0.05 0.05 85 1006.6
20260904221006 53 339 13.9 26.1 0.00 0.05 0.05 85 1006.8
20260904220504 53 5 7.0 26.1 0.00 0.05 0.05 85 1006.0
20260904220019 53 356 10.4 20.9 0.00 0.05 0.05 85 1007.1
20260904215510 53 4 11.3 23.5 0.00 0.05 0.05 85 1006.7
20260904215003 53 19 9.6 23.5 0.00 0.05 0.05 85 1006.7
20260904214505 53 1 11.3 26.1 0.00 0.05 0.05 85 1006.8
20260904214005 53 9 10.4 26.9 0.00 0.05 0.05 85 1006.8
20260904213504 53 1 13.0 26.9 0.00 0.05 0.05 85 1006.8
20260904213006 53 15 13.0 24.3 0.00 0.04 0.04 85 1006.7
20260904212504 52 347 11.3 17.4 0.00 0.04 0.04 85 1006.7
20260904212004 52 23 7.0 13.9 0.00 0.04 0.04 85 1006.6
20260904211508 52 12 5.2 21.7 0.00 0.04 0.04 85 1006.4
20260904211004 53 39 7.0 21.7 0.00 0.04 0.04 85 1006.7
20260904210504 53 11 9.6 20.0 0.00 0.04 0.04 85 1007.1
20260904210019 52 352 9.6 20.0 0.00 0.04 0.04 84 1007.5
20260904205506 53 55 7.8 23.5 0.00 0.04 0.04 84 1007.7
20260904205009 53 37 13.0 25.2 0.00 0.04 0.04 84 1008.0
20260904204512 53 4 14.8 27.8 0.00 0.04 0.04 83 1007.7
20260904204004 53 345 15.6 27.8 0.00 0.04 0.04 83 1007.6
20260904203504 53 8 13.0 25.2 0.00 0.04 0.04 83 1007.2
20260904203006 53 2 10.4 23.5 0.00 0.03 0.03 83 1007.3
20260904202503 53 24 7.8 23.5 0.00 0.03 0.03 84 1007.3
20260904202008 53 341 13.9 21.7 0.00 0.03 0.03 84 1007.1
20260904201508 52 328 7.0 17.4 0.00 0.03 0.03 84 1007.2
20260904201006 53 339 10.4 17.4 0.00 0.03 0.03 84 1007.5
20260904200507 52 1 10.4 17.4 0.00 0.03 0.03 84 1007.5
20260904200005 52 347 8.7 16.5 0.00 0.03 0.03 84 1007.8
20260904195508 52 8 9.6 21.7 0.00 0.03 0.03 84 1007.7
20260904195007 52 13 11.3 21.7 0.00 0.03 0.03 84 1007.7
20260904194514 52 2 5.2 21.7 0.00 0.03 0.03 84 1007.5
20260904194009 52 357 8.7 21.7 0.00 0.03 0.03 84 1007.3
20260904193505 53 6 10.4 18.2 0.00 0.03 0.03 84 1007.5
20260904193021 53 355 7.0 18.2 0.00 0.03 0.03 84 1007.6
20260904192506 53 12 9.6 18.2 0.00 0.03 0.03 84 1007.6
20260904192004 53 22 8.7 19.1 0.00 0.03 0.03 84 1007.8
20260904191505 53 15 9.6 19.1 0.00 0.03 0.03 84 1007.9
20260904191005 53 360 8.7 16.5 0.00 0.03 0.03 84 1007.9
20260904190507 53 344 8.7 17.4 0.00 0.03 0.03 83 1007.9
20260904190008 53 5 10.4 18.2 0.00 0.03 0.03 83 1008.3
20260904185507 53 8 8.7 19.1 0.00 0.03 0.03 82 1008.5
20260904185007 53 345 12.2 19.1 0.00 0.03 0.03 81 1008.6
20260904184514 53 353 9.6 19.1 0.00 0.03 0.03 82 1008.5
20260904184004 53 360 9.6 20.9 0.00 0.03 0.03 82 1007.9
20260904183509 53 358 10.4 20.9 0.00 0.03 0.03 82 1007.9
20260904183009 53 13 11.3 20.0 0.00 0.03 0.03 81 1007.9
20260904182516 53 333 12.2 22.6 0.00 0.03 0.03 81 1008.2
20260904182013 53 335 13.0 22.6 0.00 0.03 0.03 81 1008.3
20260904181510 54 356 11.3 21.7 0.01 0.03 0.03 80 1008.1
20260904181011 54 12 12.2 22.6 0.00 0.02 0.02 81 1007.9
20260904180512 54 12 13.0 24.3 0.00 0.02 0.02 81 1007.9
20260904180038 53 14 13.0 25.2 0.00 0.02 0.02 82 1007.9
20260904175506 53 29 15.6 25.2 0.00 0.02 0.02 83 1007.9
20260904175008 53 16 10.4 21.7 0.00 0.02 0.02 84 1007.7
20260904174527 53 12 10.4 20.9 0.00 0.02 0.02 84 1007.6
20260904174010 53 15 7.8 19.1 0.00 0.02 0.02 84 1007.8
20260904173510 53 11 10.4 20.0 0.00 0.02 0.02 84 1007.8
20260904173016 53 31 7.8 20.0 0.01 0.02 0.02 84 1007.8
20260904172510 53 11 9.6 20.0 0.01 0.02 0.02 84 1008.0
20260904172011 53 359 7.0 23.5 0.01 0.02 0.02 84 1008.3
20260904171523 53 8 10.4 23.5 0.00 0.01 0.01 84 1009.0
20260904171006 53 6 12.2 20.9 0.00 0.01 0.01 84 1009.2
20260904170512 53 14 8.7 23.5 0.00 0.01 0.01 84 1009.1
20260904170020 53 316 12.2 24.3 0.01 0.01 0.01 84 1009.5
20260904165506 53 341 10.4 25.2 0.01 0.01 0.01 85 1009.5
20260904165015 53 35 11.3 27.8 0.01 0.01 0.01 85 1009.8
20260904164519 53 345 11.3 27.8 0.01 0.01 0.01 85 1010.1
20260904164015 53 337 9.6 20.0 0.01 0.01 0.01 85 1009.8
20260904163516 52 13 9.6 25.2 0.01 0.01 0.01 85 1009.9
20260904163034 52 355 13.0 25.2 0.00 0.00 0.00 85 1010.2
20260904162508 53 72 9.6 27.8 0.00 0.00 0.00 85 1010.1
20260904162009 53 8 12.2 27.8 0.00 0.00 0.00 84 1010.6
20260904161517 53 3 11.3 24.3 0.00 0.00 0.00 84 1011.0
20260904161012 53 19 11.3 24.3 0.00 0.00 0.00 84 1011.0
20260904160510 53 8 7.8 21.7 0.00 0.00 0.00 83 1011.0
20260904160028 53 358 12.2 21.7 0.00 0.00 0.00 83 1011.3
20260904155512 53 29 11.3 21.7 0.00 0.00 0.00 82 1011.4
20260904155007 54 345 11.3 21.7 0.00 0.00 0.00 82 1011.6
20260904154532 54 326 7.8 23.5 0.00 0.00 0.00 81 1011.7
20260904154013 54 2 11.3 25.2 0.00 0.00 0.00 81 1011.7
20260904153517 54 326 12.2 25.2 0.00 0.00 0.00 81 1011.5
20260904153032 54 351 12.2 21.7 0.00 0.00 0.00 81 1011.5
20260904152511 54 2 13.9 21.7 0.00 0.00 0.00 80 1011.7
20260904152006 54 4 11.3 20.9 0.00 0.00 0.00 80 1011.7
20260904151514 54 341 11.3 28.7 0.00 0.00 0.00 80 1011.7
20260904151015 54 331 12.2 28.7 0.00 0.00 0.00 80 1011.9
20260904150512 54 56 13.0 26.9 0.00 0.00 0.00 80 1011.9
20260904150020 54 6 11.3 24.3 0.00 0.00 0.00 81 1011.9
20260904145513 54 49 10.4 20.0 0.00 0.00 0.00 81 1011.9
20260904145013 54 15 11.3 20.0 0.00 0.00 0.00 81 1012.1
20260904144516 54 8 8.7 20.0 0.00 0.00 0.00 82 1012.2
20260904144015 54 5 7.8 16.5 0.00 0.00 0.00 82 1012.2
20260904143513 53 333 7.0 20.9 0.00 0.00 0.00 82 1012.0
20260904143034 53 18 11.3 20.9 0.00 0.00 0.00 81 1012.1
20260904142519 53 4 12.2 20.9 0.00 0.00 0.00 82 1012.0
20260904142006 53 35 7.8 23.5 0.00 0.00 0.00 82 1011.9
20260904141511 53 2 10.4 23.5 0.00 0.00 0.00 82 1012.0
20260904141004 53 359 7.8 22.6 0.00 0.00 0.00 82 1012.0
20260904140510 53 20 9.6 22.6 0.00 0.00 0.00 82 1012.1
20260904140011 53 9 11.3 20.0 0.00 0.00 0.00 82 1012.3
20260904135503 53 24 8.7 25.2 0.00 0.00 0.00 81 1012.3
20260904135008 54 10 12.2 26.9 0.00 0.00 0.00 80 1012.4
20260904134508 54 15 13.0 26.9 0.00 0.00 0.00 79 1012.6
20260904134002 54 20 11.3 32.2 0.00 0.00 0.00 79 1012.7
20260904133504 55 10 15.6 33.0 0.00 0.00 0.00 79 1012.8
20260904133007 55 4 16.5 33.0 0.00 0.00 0.00 79 1012.8
20260904132510 55 10 15.6 26.1 0.00 0.00 0.00 79 1013.0
20260904132009 55 14 11.3 26.1 0.00 0.00 0.00 78 1013.0
20260904131504 55 58 13.0 31.3 0.00 0.00 0.00 77 1013.2
20260904131004 55 339 14.8 31.3 0.00 0.00 0.00 77 1013.3
20260904130505 56 345 19.1 27.8 0.00 0.00 0.00 77 1013.4
20260904130018 55 9 16.5 27.8 0.00 0.00 0.00 77 1013.2
20260904125509 55 33 13.9 28.7 0.00 0.00 0.00 76 1013.3
20260904125005 55 344 17.4 30.4 0.00 0.00 0.00 76 1013.1
20260904124518 55 1 12.2 30.4 0.00 0.00 0.00 76 1013.3
20260904124004 56 349 15.6 27.8 0.00 0.00 0.00 75 1013.3
20260904123514 56 351 13.9 31.3 0.00 0.00 0.00 75 1013.3
20260904123012 56 341 15.6 33.0 0.00 0.00 0.00 75 1013.3
20260904122504 56 329 15.6 35.6 0.00 0.00 0.00 75 1013.2
20260904122005 56 8 14.8 35.6 0.00 0.00 0.00 75 1013.0
20260904121506 56 128 13.0 26.9 0.00 0.00 0.00 75 1013.1
20260904121004 56 18 14.8 26.9 0.00 0.00 0.00 75 1013.2
20260904120515 56 4 17.4 27.8 0.00 0.00 0.00 74 1013.6
20260904120011 56 24 15.6 27.8 0.00 0.00 0.00 74 1013.1
20260904115508 56 354 12.2 20.9 0.00 0.00 0.00 74 1013.4
20260904115010 56 21 11.3 20.9 0.00 0.00 0.00 74 1013.2
20260904114509 56 349 12.2 23.5 0.00 0.00 0.00 74 1013.2
20260904114011 56 330 12.2 25.2 0.00 0.00 0.00 74 1013.0